DW2470 Weather Reports


time (UTC)temp
F
wind
direction
speed
knots
gust
knots
rain 1hr
in
rain 24hr
in
rain mn
in
humidity
%
barometer
mb
20260901011544 67 182 0.0 0.0 0.00 0.00 0.33 97 1008.3
20260901010053 68 122 0.9 0.0 0.00 0.00 0.33 97 1008.1
20260901004543 69 121 0.9 0.0 0.00 0.00 0.33 97 1007.8
20260901003018 69 121 0.0 0.0 0.00 0.00 0.33 97 1007.6
20260901001522 69 120 0.9 0.0 0.00 0.00 0.33 97 1007.5
20260901000010 70 120 0.0 0.0 0.00 0.00 0.33 97 1007.5
20260831234509 71 120 0.0 0.0 0.00 0.00 0.33 97 1007.4
20260831233014 71 120 0.0 0.0 0.00 0.00 0.33 97 1007.5
20260831231516 71 120 0.0 0.0 0.00 0.00 0.33 98 1007.3
20260831230038 72 120 0.0 0.0 0.00 0.00 0.33 98 1007.5
20260831224536 71 120 0.9 0.0 0.00 0.00 0.33 98 1007.6
20260831223033 71 119 0.9 0.0 0.00 0.00 0.33 99 1007.6
20260831221536 70 117 1.7 0.0 0.00 0.00 0.33 99 1007.5
20260831220029 70 118 1.7 0.0 0.00 0.00 0.33 98 1007.4
20260831214527 70 117 0.9 0.0 0.00 0.00 0.33 99 1007.5
20260831213022 69 116 0.0 0.0 0.00 0.00 0.33 98 1007.5
20260831211520 69 116 0.0 0.0 0.00 0.00 0.33 98 1007.4
20260831210019 68 116 0.0 0.0 0.00 0.00 0.33 98 1007.5
20260831204517 68 116 0.0 0.0 0.00 0.00 0.33 98 1007.4
20260831203116 68 116 0.0 0.0 0.00 0.00 0.33 98 1007.2
20260831201546 68 116 0.0 0.0 0.00 0.00 0.33 98 1007.2
20260831200055 67 116 0.0 0.0 0.00 0.00 0.33 98 1007.2
20260831194558 67 116 0.0 0.0 0.00 0.00 0.33 98 1007.3
20260831193040 67 116 0.0 0.0 0.00 0.00 0.33 98 1007.2
20260831191539 67 116 0.0 0.0 0.00 0.00 0.33 98 1007.3
20260831190051 67 116 0.0 0.0 0.00 0.00 0.33 98 1007.4
20260831184536 67 116 0.0 0.0 0.00 0.00 0.33 98 1007.4
20260831183035 66 116 0.0 0.0 0.00 0.00 0.33 98 1007.3
20260831181534 66 116 0.0 0.0 0.00 0.00 0.33 98 1007.3
20260831180034 66 115 0.0 0.0 0.00 0.00 0.33 98 1007.5
20260831174532 66 116 0.0 0.0 0.00 0.00 0.33 98 1007.5
20260831173030 66 116 0.0 0.0 0.00 0.00 0.33 98 1007.8
20260831171529 65 115 0.9 0.0 0.00 0.00 0.33 98 1007.8
20260831170037 65 115 1.7 0.0 0.00 0.00 0.33 98 1007.5
20260831164558 65 111 0.9 0.0 0.00 0.00 0.33 98 1007.7
20260831163057 65 125 0.9 0.0 0.00 0.00 0.33 98 1007.6
20260831161554 65 96 0.9 0.0 0.00 0.00 0.33 98 1007.6
20260831160053 65 94 0.9 0.0 0.00 0.00 0.33 98 1007.5
20260831154556 65 96 0.9 0.0 0.00 0.00 0.33 98 1007.4
20260831153055 65 96 0.9 0.0 0.00 0.00 0.33 98 1007.6
20260831151550 64 94 0.9 0.0 0.00 0.00 0.33 98 1007.2
20260831150047 64 100 1.7 0.0 0.00 0.00 0.33 98 1007.3
20260831144546 64 101 0.9 0.0 0.00 0.00 0.33 98 1007.3
20260831143045 64 100 0.9 0.0 0.00 0.00 0.33 98 1007.2
20260831141543 64 99 0.9 0.0 0.00 0.00 0.33 98 1007.3
20260831140051 64 92 1.7 0.0 0.00 0.00 0.33 98 1007.3
20260831134543 64 99 0.9 0.0 0.00 0.00 0.33 98 1007.0
20260831133043 64 89 0.9 0.0 0.00 0.00 0.33 98 1007.0
20260831131541 64 89 0.9 0.0 0.00 0.00 0.33 98 1007.2
20260831130045 64 77 0.9 0.0 0.00 0.00 0.33 98 1006.9
20260831124537 64 70 0.9 0.0 0.00 0.00 0.33 98 1006.9
20260831123040 64 48 0.9 0.0 0.00 0.00 0.33 98 1006.8
20260831121541 64 14 0.9 0.0 0.00 0.00 0.33 98 1007.2
20260831120032 64 355 0.9 0.0 0.00 0.00 0.33 98 1007.5
20260831114532 64 75 0.0 0.0 0.00 0.00 0.26 98 1008.2
20260831113032 64 75 1.7 0.0 0.00 0.00 0.23 98 1007.8
20260831111528 64 115 1.7 0.0 0.00 0.00 0.22 98 1007.4
20260831110029 63 93 2.6 0.0 0.00 0.00 0.22 98 1007.4
20260831104527 64 112 3.5 0.0 0.00 0.00 0.22 98 1006.8
20260831103027 64 96 2.6 0.0 0.00 0.00 0.19 98 1007.1
20260831101522 63 100 1.7 0.0 0.00 0.00 0.18 97 1006.9
20260831100026 63 77 1.7 0.0 0.00 0.00 0.15 97 1007.2
20260831094525 63 39 1.7 0.0 0.00 0.00 0.12 97 1007.5
20260831093019 63 89 1.7 0.0 0.00 0.00 0.07 97 1008.0
20260831091514 63 14 1.7 0.0 0.00 0.00 0.06 97 1007.9
20260831090013 62 112 0.9 0.0 0.00 0.00 0.05 97 1008.3
20260831084517 62 69 0.9 0.0 0.00 0.00 0.05 97 1008.3
20260831083026 62 112 1.7 0.0 0.00 0.00 0.04 97 1008.2
20260831081509 62 86 1.7 0.0 0.00 0.00 0.03 97 1008.0
20260831080022 62 90 1.7 0.0 0.00 0.00 0.02 97 1008.2
20260831074512 62 110 2.6 0.0 0.00 0.00 0.01 97 1008.2
20260831073013 62 45 1.7 0.0 0.00 0.00 0.01 97 1008.7
20260831071600 62 78 1.7 0.0 0.00 0.00 0.00 97 1008.8
20260831071500 62 66 1.7 0.0 0.00 0.00 0.00 97 1008.8
20260831070114 62 66 1.7 0.0 0.00 0.00 0.00 97 1009.1
20260831064558 62 97 1.7 0.0 0.00 0.00 0.00 97 1009.3
20260831063056 62 78 1.7 0.0 0.00 0.00 0.00 96 1009.4
20260831061556 62 95 2.6 0.0 0.00 0.00 0.00 96 1009.1
20260831060051 62 333 1.7 0.0 0.00 0.00 0.00 96 1009.3
20260831054548 62 90 1.7 0.0 0.00 0.00 0.00 96 1010.0
20260831053048 62 111 1.7 0.0 0.00 0.00 0.00 96 1010.5
20260831051551 62 73 1.7 0.0 0.00 0.00 0.00 96 1010.6
20260831050043 62 54 1.7 0.0 0.00 0.00 0.00 96 1010.5
20260831044551 61 48 0.9 0.0 0.00 0.00 0.00 95 1010.7
20260831043044 62 91 0.9 0.0 0.00 0.00 0.00 95 1011.3
20260831041550 61 96 1.7 0.0 0.00 0.00 0.00 95 1011.1
20260831040040 62 73 1.7 0.0 0.00 0.00 0.00 94 1011.4
20260831034539 62 70 1.7 0.0 0.00 0.00 0.00 94 1011.0
20260831033039 62 75 1.7 0.0 0.00 0.00 0.00 93 1011.1
20260831031539 62 72 2.6 0.0 0.00 0.00 0.00 93 1011.3
20260831030008 62 143 1.7 0.0 0.00 0.00 0.00 93 1011.1
20260831024510 62 9 1.7 0.0 0.00 0.00 0.00 92 1010.9
20260831023004 62 156 1.7 0.0 0.00 0.00 0.00 93 1011.0
20260831021504 62 139 1.7 0.0 0.00 0.00 0.00 93 1010.9
20260831020003 62 103 1.7 0.0 0.00 0.00 0.00 92 1010.8
20260831014503 62 47 0.9 0.0 0.00 0.00 0.00 92 1010.9
20260831013101 62 36 0.9 0.0 0.00 0.00 0.00 92 1011.0